Hourly Data Report for October 22, 2015

All times are specified in Local Standard Time (LST). Add 1 hour to adjust for Daylight Saving Time where and when it is observed.

TORONTO INTL A
ONTARIO

43°40'36.000" N
79°37'50.000" W
173.40 m
6158731
71624
YYZ

Download Data

Hourly Data (October 2015)
Hourly Data Report for October 22, 2015
Temp Definition
°C
Dew Point Temp Definition
°C
Rel Hum Definition
%
Wind Dir Definition
10's deg

Wind Spd Definition
km/h
Visibility Definition
km
Stn Press Definition
kPa
Hmdx Definition


Wind Chill Definition


Weather Definition


TIME
00:00 Legend Double Dagger 11.7 10.6 93 15 10 19.3 99.49     LegendNANA
01:00 Legend Double Dagger 12.1 10.2 88 17 9 24.1 99.46     Mostly Cloudy
02:00 Legend Double Dagger 13.9 9.4 74 23 18 24.1 99.40     LegendNANA
03:00 Legend Double Dagger 14.9 9.5 70 23 16 24.1 99.39     LegendNANA
04:00 Legend Double Dagger 15.2 10.0 71 23 16 24.1 99.42     Mostly Cloudy
05:00 Legend Double Dagger 14.7 10.0 73 23 12 24.1 99.48     LegendNANA
06:00 Legend Double Dagger 13.8 10.4 80 29 21 24.1 99.57     LegendNANA
07:00 Legend Double Dagger 13.3 9.8 79 31 28 24.1 99.68     Cloudy
08:00 Legend Double Dagger 12.1 7.0 71 32 26 24.1 99.79     LegendNANA
09:00 Legend Double Dagger 12.9 6.5 65 29 29 24.1 99.87     LegendNANA
10:00 Legend Double Dagger 13.7 6.6 62 31 28 24.1 99.91     Mostly Cloudy
11:00 Legend Double Dagger 14.3 5.7 56 31 30 24.1 99.91     LegendNANA
12:00 Legend Double Dagger 15.2 5.5 52 30 31 24.1 99.96     LegendNANA
13:00 Legend Double Dagger 14.3 4.9 53 30 27 24.1 99.92     Mainly Clear
14:00 Legend Double Dagger 14.9 4.1 48 29 30 24.1 99.91     LegendNANA
15:00 Legend Double Dagger 15.9 3.4 43 29 30 24.1 99.91     LegendNANA
16:00 Legend Double Dagger 14.9 2.8 44 29 30 24.1 99.98     Mainly Clear
17:00 Legend Double Dagger 12.9 1.9 47 31 36 24.1 100.09     LegendNANA
18:00 Legend Double Dagger 11.3 1.6 51 31 30 24.1 100.20     LegendNANA
19:00 Legend Double Dagger 10.4 2.0 56 30 21 24.1 100.28     Clear
20:00 Legend Double Dagger 9.5 2.8 63 29 17 24.1 100.31     LegendNANA
21:00 Legend Double Dagger 8.7 2.5 65 31 20 24.1 100.37     LegendNANA
22:00 Legend Double Dagger 7.7 2.4 69 31 17 24.1 100.42     Mainly Clear
23:00 Legend Double Dagger 7.7 2.8 71 32 15 24.1 100.46     LegendNANA

Notes on Data Quality.

Legend

  • E = Estimated
  • M = Missing
  • NA = Not Available
  • ‡ = Partner data that is not subject to review by the National Climate Archives
Date modified: